This is the latest recevied weather packets stored in our database for station/object DC1MPP-9. If no packets are shown the sender has not sent any weather packets the latest 10 day(s).
| Time | Temp. | Humidity | Pressure | Rain* | Wind** | Luminosity | Snow |
|---|---|---|---|---|---|---|---|
| 1787576355 | 26.11° C | 41% | 961 hPa | - | - | - | - |
| 1787575873 | 26.67° C | 43% | 961 hPa | - | - | - | - |
| 1787575632 | 26.11° C | 42% | 961 hPa | - | - | - | - |
| 1787575391 | 25.56° C | 40% | 961 hPa | - | - | - | - |
| 1787574909 | 25.56° C | 40% | 962 hPa | - | - | - | - |
| 1787574668 | 26.11° C | 40% | 962 hPa | - | - | - | - |
| 1787574427 | 25.56° C | 42% | 962 hPa | - | - | - | - |
| 1787574186 | 25° C | 40% | 962 hPa | - | - | - | - |
| 1787573945 | 25.56° C | 42% | 962 hPa | - | - | - | - |
| 1787573703 | 25.56° C | 40% | 962 hPa | - | - | - | - |
| 1787573462 | 25° C | 41% | 962 hPa | - | - | - | - |
| 1787573221 | 25° C | 41% | 962 hPa | - | - | - | - |
| 1787572980 | 24.44° C | 43% | 962 hPa | - | - | - | - |
| 1787572498 | 25.56° C | 43% | 962 hPa | - | - | - | - |
| 1787572257 | 25.56° C | 41% | 962 hPa | - | - | - | - |
| 1787572016 | 25.56° C | 44% | 962 hPa | - | - | - | - |
| 1787571775 | 25° C | 41% | 962 hPa | - | - | - | - |
| 1787571534 | 25.56° C | 41% | 962 hPa | - | - | - | - |
| 1787571293 | 25.56° C | 41% | 962 hPa | - | - | - | - |
| 1787570811 | 25° C | 40% | 962 hPa | - | - | - | - |
| 1787570570 | 24.44° C | 40% | 962 hPa | - | - | - | - |
| 1787570329 | 25° C | 40% | 962 hPa | - | - | - | - |
| 1787570088 | 25° C | 42% | 962 hPa | - | - | - | - |
| 1787569846 | 25° C | 39% | 962 hPa | - | - | - | - |
| 1787569605 | 25° C | 41% | 962 hPa | - | - | - | - |
* Rain since midnight (hover to see other rain measurements)
** Current wind speed in m/s (hover to see current wind gust speed)